Simultaneous Nadir Overpasses (SNOs) Predictions

Prediction of SNOs between GOES-16 and NOAA-19 Satellite Orbit:

Table of predicted SNOs for the next 14.0 days since TLE Epoch: 12/14/2024
Index Date Time (GOES-16) GOES-16 Lat,Lon NOAA-19 Lat,Lon Distance(km) Time Diff (sec)
1 12/14/2024 14:32:27 -0.02, -75.20 -0.20, -74.45 86.03 80
2 12/15/2024 14:19:58 -0.02, -75.20 -0.90, -71.42 432.39 80
3 12/17/2024 02:51:32 0.02, -75.17 -0.86, -79.00 436.30 80
4 12/18/2024 02:39:03 0.01, -75.18 -0.17, -75.96 89.51 80
5 12/19/2024 02:23:53 0.01, -75.18 0.53, -72.93 257.54 80
6 12/21/2024 14:42:42 -0.01, -75.24 0.48, -77.41 247.70 80
7 12/22/2024 14:32:53 -0.01, -75.25 -0.23, -74.38 100.32 80
8 12/23/2024 14:20:22 -0.00, -75.27 -0.89, -71.34 448.42 80
9 12/25/2024 02:51:57 0.00, -75.26 -0.85, -78.92 418.12 80
10 12/26/2024 02:39:28 -0.00, -75.28 -0.13, -75.89 69.81 80
11 12/27/2024 02:24:18 -0.00, -75.29 0.53, -72.85 278.60 80
